Belmar-Farmingdale, NJ

12:58 AM EDT on September 16, 2019 (GMT -0400)
Allaire

Weather History for KBLM - August, 2019

Change the Weather History Date:

Wednesday, August 21, 2019

  Actual Average Record
Temperature  
Mean Temperature 81 °F -  
Max Temperature 91 °F 78 °F 91 °F (2005)
Min Temperature 73 °F 63 °F 55 °F (2008)
Cooling Degree Days 16    
Growing Degree Days 31 (Base 50)    
Moisture  
Dew Point 73 °F    
Average Humidity 88    
Maximum Humidity 100    
Minimum Humidity 57    
Precipitation  
Precipitation 0.15 in - - ()
Sea Level Pressure  
Sea Level Pressure 29.98 in    
Wind  
Wind Speed 4 mph ()    
Max Wind Speed 20 mph    
Max Gust Speed 34 mph    
Visibility 5.9 miles    
Events Fog , Rain , Thunderstorm    
Averages and records for this station are not official NWS values.
T = Trace of Precipitation, MM = Missing Value Source: Averaged Metar Reports

Daily Weather History Graph

Daily Weather History Graph

Search for Another Location

Airport or City:

Astronomy

Aug. 21, 2019 Rise Set
Actual Time 6:13 AM EDT 7:45 PM EDT
Civil Twilight 5:44 AM EDT 8:13 PM EDT
Nautical Twilight 5:10 AM EDT 8:48 PM EDT
Astronomical Twilight 4:33 AM EDT 9:24 PM EDT
Moon 11:01 PM EDT (8/21) 11:47 AM EDT (8/21)
Length of Visible Light 14h 29m
Length of Day
13h 32m
Waning Gibbous, 69% of the Moon is Illuminated
Aug 21
Waning Gibbous
Aug 23
Last Quarter
Aug 30
New
Sep 5
First Quarter
Sep 14
Full

Hourly Weather History & Observations

Time (EDT) Temp. Heat Index Dew Point Humidity Pressure Visibility Wind Dir Wind Speed Gust Speed Precip Events Conditions
12:24 AM 73.4 °F - 71.6 °F 94% 30.06 in 10.0 mi Calm Calm - N/A   Scattered Clouds
12:33 AM 73.4 °F - 73.4 °F 100% 30.06 in 9.0 mi Calm Calm - N/A   Mostly Cloudy
12:56 AM 73.9 °F - 73.0 °F 97% 30.06 in 6.0 mi Calm Calm - N/A   Scattered Clouds
1:30 AM 75.2 °F - 73.4 °F 94% 30.06 in 5.0 mi SE 3.5 mph - N/A   Mostly Cloudy
1:43 AM 75.2 °F - 75.2 °F 100% 30.05 in 7.0 mi Calm Calm - N/A   Mostly Cloudy
1:56 AM 75.0 °F - 73.9 °F 96% 30.05 in 6.0 mi South 3.5 mph - N/A   Mostly Cloudy
2:56 AM 75.0 °F - 73.9 °F 96% 30.04 in 5.0 mi South 3.5 mph - N/A   Overcast
3:12 AM 75.2 °F - 73.4 °F 94% 30.04 in 6.0 mi South 3.5 mph - N/A   Overcast
3:33 AM 75.2 °F - 73.4 °F 94% 30.03 in 6.0 mi SSW 3.5 mph - N/A   Scattered Clouds
3:56 AM 75.0 °F - 73.9 °F 96% 30.01 in 6.0 mi Calm Calm - N/A   Clear
4:56 AM 75.0 °F - 73.9 °F 96% 29.99 in 5.0 mi Calm Calm - N/A   Clear
5:56 AM 73.9 °F - 73.0 °F 97% 29.98 in 5.0 mi Calm Calm - N/A   Clear
6:17 AM 73.4 °F - 73.4 °F 100% 29.99 in 1.8 mi South 4.6 mph - N/A   Clear
6:20 AM 73.4 °F - 73.4 °F 100% 29.99 in 0.8 mi South 4.6 mph - N/A   Clear
6:23 AM 73.4 °F - 73.4 °F 100% 29.99 in 0.2 mi South 4.6 mph - N/A Fog Fog
6:47 AM 73.4 °F - 73.4 °F 100% 30.01 in 0.8 mi South 3.5 mph - N/A   Mostly Cloudy
6:51 AM 73.4 °F - 73.4 °F 100% 30.01 in 2.0 mi South 3.5 mph - N/A   Mostly Cloudy
6:56 AM 73.9 °F - 73.0 °F 97% 30.01 in 3.0 mi South 3.5 mph - N/A   Overcast
7:07 AM 73.4 °F - 73.4 °F 100% 30.01 in 2.5 mi South 3.5 mph - N/A   Mostly Cloudy
7:17 AM 73.4 °F - 73.4 °F 100% 30.01 in 2.0 mi South 4.6 mph - N/A   Scattered Clouds
7:33 AM 73.4 °F - 73.4 °F 100% 30.01 in 1.0 mi South 6.9 mph - N/A   Clear
7:35 AM 73.4 °F - 73.4 °F 100% 30.01 in 0.5 mi South 6.9 mph - N/A Fog Fog
7:42 AM 73.4 °F - 73.4 °F 100% 30.01 in 0.2 mi South 6.9 mph - N/A Fog Fog
7:47 AM 73.4 °F - 73.4 °F 100% 30.01 in 0.8 mi South 6.9 mph - N/A   Mist
7:50 AM 73.4 °F - 73.4 °F 100% 30.01 in 1.2 mi South 6.9 mph - N/A   Scattered Clouds
7:56 AM 75.0 °F - 73.9 °F 96% 30.01 in 1.8 mi South 4.6 mph - N/A   Mostly Cloudy
8:05 AM 75.2 °F - 73.4 °F 94% 30.01 in 2.5 mi SSW 6.9 mph - N/A   Mostly Cloudy
8:14 AM 75.2 °F - 75.2 °F 100% 30.01 in 3.0 mi SSW 5.8 mph - N/A   Overcast
8:56 AM 79.0 °F - 75.0 °F 88% 29.99 in 7.0 mi SSW 10.4 mph - N/A   Overcast
9:13 AM 78.8 °F - 75.2 °F 89% 29.99 in 9.0 mi SSW 6.9 mph - N/A   Mostly Cloudy
9:29 AM 80.6 °F 85.4 °F 73.4 °F 79% 29.99 in 10.0 mi SSW 11.5 mph - N/A   Scattered Clouds
9:56 AM 82.0 °F 86.7 °F 72.0 °F 71% 29.98 in 10.0 mi SSW 9.2 mph - N/A   Clear
10:56 AM 84.0 °F 89.6 °F 72.0 °F 67% 29.97 in 10.0 mi SSW 12.7 mph - N/A   Clear
11:56 AM 86.0 °F 92.2 °F 72.0 °F 63% 29.96 in 10.0 mi SW 12.7 mph 18.4 mph N/A   Mostly Cloudy
12:56 PM 87.1 °F 93.6 °F 72.0 °F 61% 29.94 in 10.0 mi SW 13.8 mph 21.9 mph N/A   Clear
1:56 PM 89.1 °F 96.0 °F 72.0 °F 57% 29.91 in 10.0 mi SSW 11.5 mph - N/A   Clear
2:56 PM 89.1 °F 96.0 °F 72.0 °F 57% 29.90 in 10.0 mi SW 12.7 mph 21.9 mph N/A   Scattered Clouds
3:56 PM 88.0 °F 94.7 °F 72.0 °F 59% 29.88 in 10.0 mi SSW 11.5 mph - N/A Thunderstorm Mostly Cloudy
4:05 PM 82.4 °F 86.3 °F 69.8 °F 66% 29.91 in 3.0 mi SW 19.6 mph 34.5 mph 0.10 in Rain Heavy Rain
4:56 PM 82.9 °F 90.8 °F 75.9 °F 79% 29.86 in 10.0 mi SSE 3.5 mph - 0.15 in   Scattered Clouds
5:56 PM 84.0 °F 91.2 °F 73.9 °F 72% 29.88 in 10.0 mi SSW 9.2 mph - N/A   Partly Cloudy
6:56 PM 84.0 °F 89.6 °F 72.0 °F 67% 29.87 in 10.0 mi SSW 11.5 mph - N/A   Clear
7:56 PM 82.0 °F 87.9 °F 73.9 °F 76% 29.88 in 10.0 mi South 10.4 mph - N/A   Partly Cloudy
8:56 PM 78.1 °F - 75.0 °F 90% 29.90 in 10.0 mi SSW 6.9 mph - N/A   Clear
9:56 PM 78.1 °F - 73.9 °F 87% 29.89 in 10.0 mi SSW 5.8 mph - N/A   Clear
10:56 PM 77.0 °F - 73.0 °F 88% 29.90 in 10.0 mi SSW 6.9 mph - N/A   Clear
11:56 PM 75.9 °F - 73.0 °F 91% 29.89 in 10.0 mi SSW 5.8 mph - N/A   Clear